When you browse on this site, cookies collect data to enhance your experience and personalize the content and advertising you see.
Visit our Privacy Policy to learn more. By continuing to use the site, you agree to this use of cookies and data.
  • In Lithuania
  • List of Countries
  • For 7 days
  • Water Temperature
  • Satellite Maps
  • Weather Map
  • Weather Widgets
  • user-avatar
    Login

    Hourly Weather Carlisle

    Today, 21 April, Sunday

    Time Temperature Precipitation Wind Pressure Humidity
    00:00 +13°C° 0 mm 2 mps 767 mmHg 79%
    01:00 +13°C° 0 mm 2 mps 766 mmHg 78%
    02:00 +12°C° 0 mm 2 mps 765 mmHg 77%
    03:00 +12°C° 0 mm 2 mps 765 mmHg 76%
    04:00 +12°C° 0 mm 2 mps 765 mmHg 79%
    05:00 +12°C° 0 mm 2 mps 764 mmHg 82%
    06:00 +13°C° 0 mm 2 mps 764 mmHg 83%
    07:00 +14°C° 0 mm 2 mps 763 mmHg 79%
    08:00 +16°C° 0 mm 3 mps 763 mmHg 75%
    09:00 +18°C° 0 mm 3 mps 762 mmHg 71%
    10:00 +18°C° 0 mm 3 mps 762 mmHg 67%
    11:00 +19°C° 0 mm 4 mps 761 mmHg 63%
    12:00 +20°C° 0 mm 4 mps 761 mmHg 60%
    13:00 +20°C° 0 mm 4 mps 760 mmHg 59%
    14:00 +20°C° 0 mm 4 mps 760 mmHg 59%
    15:00 +20°C° 0 mm 4 mps 759 mmHg 58%
    16:00 +19°C° 0 mm 4 mps 758 mmHg 63%
    17:00 +19°C° 0 mm 3 mps 758 mmHg 68%
    18:00 +18°C° 0 mm 2 mps 758 mmHg 73%
    19:00 +16°C° 0 mm 2 mps 758 mmHg 76%
    20:00 +14°C° 0 mm 2 mps 757 mmHg 79%
    21:00 +12°C° 0 mm 2 mps 757 mmHg 82%
    22:00 +12°C° 0 mm 2 mps 757 mmHg 82%
    23:00 +10°C° 0 mm 2 mps 757 mmHg 81%

    Tomorrow, 22 April, Monday

    Time Temperature Precipitation Wind Pressure Humidity
    00:00 +10°C° 0 mm 2 mps 756 mmHg 81%
    01:00 +10°C° 0 mm 2 mps 756 mmHg 83%
    02:00 +10°C° 0 mm 2 mps 755 mmHg 85%
    03:00 +9°C° 0 mm 2 mps 755 mmHg 87%
    04:00 +10°C° 0 mm 2 mps 755 mmHg 87%
    05:00 +10°C° 0 mm 2 mps 754 mmHg 87%
    06:00 +10°C° 0 mm 2 mps 754 mmHg 87%
    07:00 +12°C° 0 mm 3 mps 754 mmHg 79%
    08:00 +15°C° 0 mm 4 mps 754 mmHg 71%
    09:00 +18°C° 0 mm 4 mps 753 mmHg 63%
    10:00 +19°C° 0 mm 4 mps 753 mmHg 60%
    11:00 +20°C° 0 mm 5 mps 753 mmHg 57%
    12:00 +20°C° 0 mm 5 mps 752 mmHg 54%
    13:00 +20°C° 0 mm 5 mps 752 mmHg 54%
    14:00 +21°C° 0 mm 5 mps 752 mmHg 53%
    15:00 +21°C° 0 mm 5 mps 751 mmHg 53%
    16:00 +20°C° 0.1 mm 5 mps 751 mmHg 60%
    17:00 +19°C° 0.1 mm 4 mps 751 mmHg 67%
    18:00 +18°C° 0.1 mm 4 mps 751 mmHg 74%
    19:00 +17°C° 0.1 mm 4 mps 751 mmHg 75%
    20:00 +14°C° 0.1 mm 4 mps 751 mmHg 77%
    21:00 +12°C° 0.1 mm 4 mps 751 mmHg 78%
    22:00 +11°C° 0 mm 4 mps 751 mmHg 79%
    23:00 +11°C° 0 mm 3 mps 751 mmHg 81%

    Day after tomorrow, 23 April, Tuesday

    Time Temperature Precipitation Wind Pressure Humidity
    00:00 +10°C° 0 mm 3 mps 751 mmHg 82%
    01:00 +10°C° 0 mm 3 mps 751 mmHg 83%
    02:00 +10°C° 0 mm 3 mps 750 mmHg 83%
    03:00 +10°C° 0 mm 3 mps 750 mmHg 83%
    04:00 +10°C° 0 mm 3 mps 750 mmHg 85%
    05:00 +10°C° 0 mm 3 mps 750 mmHg 86%
    06:00 +10°C° 0 mm 3 mps 750 mmHg 88%
    07:00 +12°C° 0 mm 4 mps 750 mmHg 83%
    08:00 +14°C° 0 mm 4 mps 750 mmHg 77%
    09:00 +15°C° 0 mm 5 mps 750 mmHg 72%
    10:00 +16°C° 0 mm 5 mps 750 mmHg 69%
    11:00 +17°C° 0 mm 5 mps 750 mmHg 66%
    12:00 +20°C° 0 mm 5 mps 750 mmHg 63%
    13:00 +20°C° 0 mm 5 mps 749 mmHg 63%
    14:00 +20°C° 0 mm 5 mps 749 mmHg 63%
    15:00 +20°C° 0 mm 5 mps 749 mmHg 64%
    16:00 +17°C° 0 mm 5 mps 749 mmHg 68%
    17:00 +16°C° 0 mm 5 mps 749 mmHg 72%
    18:00 +15°C° 0 mm 5 mps 749 mmHg 76%
    19:00 +13°C° 0 mm 5 mps 749 mmHg 80%
    20:00 +11°C° 0 mm 4 mps 749 mmHg 84%
    21:00 +8°C° 0 mm 4 mps 749 mmHg 88%
    22:00 +8°C° 0 mm 4 mps 749 mmHg 90%
    23:00 +7°C° 0 mm 4 mps 749 mmHg 92%

    24 April, Wednesday

    Time Temperature Precipitation Wind Pressure Humidity
    00:00 +8°C° 0 mm 3 mps 749 mmHg 93%
    01:00 +8°C° 0 mm 3 mps 749 mmHg 94%
    02:00 +7°C° 0 mm 3 mps 749 mmHg 94%
    03:00 +7°C° 0 mm 3 mps 748 mmHg 95%
    04:00 +8°C° 0 mm 3 mps 748 mmHg 94%
    05:00 +8°C° 0 mm 4 mps 748 mmHg 94%
    06:00 +8°C° 0 mm 4 mps 748 mmHg 93%
    07:00 +10°C° 0 mm 5 mps 748 mmHg 89%
    08:00 +12°C° 0 mm 5 mps 748 mmHg 84%
    09:00 +14°C° 0 mm 6 mps 748 mmHg 80%
    10:00 +15°C° 0 mm 6 mps 747 mmHg 77%
    11:00 +16°C° 0 mm 7 mps 747 mmHg 74%
    12:00 +17°C° 0 mm 7 mps 747 mmHg 71%
    13:00 +17°C° 0 mm 7 mps 746 mmHg 72%
    14:00 +17°C° 0 mm 7 mps 746 mmHg 72%
    15:00 +16°C° 0 mm 7 mps 746 mmHg 73%
    16:00 +15°C° 0 mm 7 mps 745 mmHg 76%
    17:00 +15°C° 0 mm 7 mps 745 mmHg 78%
    18:00 +14°C° 0 mm 7 mps 745 mmHg 81%
    19:00 +12°C° 0 mm 8 mps 744 mmHg 83%
    20:00 +11°C° 0 mm 8 mps 744 mmHg 84%
    21:00 +10°C° 0 mm 8 mps 743 mmHg 86%
    22:00 +11°C° 0.1 mm 8 mps 743 mmHg 86%
    23:00 +11°C° 0.1 mm 7 mps 742 mmHg 86%

    25 April, Thursday

    Time Temperature Precipitation Wind Pressure Humidity
    00:00 +12°C° 0.1 mm 7 mps 742 mmHg 85%
    01:00 +10°C° 0.6 mm 7 mps 742 mmHg 87%
    02:00 +9°C° 0.6 mm 7 mps 742 mmHg 88%
    03:00 +8°C° 0.6 mm 7 mps 743 mmHg 90%
    04:00 +8°C° 0 mm 6 mps 743 mmHg 90%
    05:00 +7°C° 0 mm 5 mps 744 mmHg 90%
    06:00 +7°C° 0 mm 4 mps 745 mmHg 91%
    07:00 +8°C° 0 mm 4 mps 745 mmHg 84%
    08:00 +11°C° 0 mm 4 mps 745 mmHg 77%
    09:00 +12°C° 0 mm 5 mps 746 mmHg 70%
    10:00 +13°C° 0.1 mm 5 mps 746 mmHg 68%
    11:00 +14°C° 0.1 mm 6 mps 746 mmHg 67%
    12:00 +15°C° 0.1 mm 6 mps 746 mmHg 65%
    13:00 +15°C° 0.4 mm 6 mps 746 mmHg 64%
    14:00 +15°C° 0.4 mm 5 mps 746 mmHg 64%
    15:00 +16°C° 0.4 mm 5 mps 746 mmHg 63%
    16:00 +15°C° 0.4 mm 5 mps 746 mmHg 69%
    17:00 +14°C° 0.4 mm 5 mps 745 mmHg 74%
    18:00 +13°C° 0.4 mm 5 mps 745 mmHg 80%
    19:00 +12°C° 0.6 mm 5 mps 745 mmHg 84%
    20:00 +10°C° 0.6 mm 5 mps 745 mmHg 87%
    21:00 +9°C° 0.6 mm 5 mps 745 mmHg 91%
    22:00 +9°C° 0.2 mm 5 mps 745 mmHg 92%
    23:00 +10°C° 0.2 mm 4 mps 744 mmHg 92%

    26 April, Friday

    Time Temperature Precipitation Wind Pressure Humidity
    00:00 +10°C° 0.2 mm 4 mps 744 mmHg 93%
    01:00 +8°C° 0.1 mm 4 mps 744 mmHg 93%
    02:00 +9°C° 0.1 mm 3 mps 744 mmHg 93%
    03:00 +9°C° 0.1 mm 3 mps 743 mmHg 93%
    04:00 +9°C° 0.1 mm 3 mps 743 mmHg 92%
    05:00 +9°C° 0.1 mm 2 mps 743 mmHg 91%
    06:00 +9°C° 0.1 mm 2 mps 743 mmHg 90%
    07:00 +9°C° 0.5 mm 2 mps 744 mmHg 89%
    08:00 +10°C° 0.5 mm 1 mps 744 mmHg 88%
    09:00 +11°C° 0.5 mm 1 mps 745 mmHg 87%
    10:00 +12°C° 0.3 mm 2 mps 745 mmHg 85%
    11:00 +11°C° 0.3 mm 4 mps 746 mmHg 83%
    12:00 +12°C° 0.3 mm 5 mps 747 mmHg 81%
    13:00 +11°C° 0.4 mm 6 mps 748 mmHg 82%
    14:00 +10°C° 0.4 mm 7 mps 749 mmHg 83%
    15:00 +9°C° 0.4 mm 8 mps 749 mmHg 85%
    16:00 +9°C° 0.1 mm 7 mps 750 mmHg 83%
    17:00 +9°C° 0.1 mm 6 mps 751 mmHg 82%
    18:00 +8°C° 0.1 mm 5 mps 751 mmHg 81%
    19:00 +7°C° 0 mm 5 mps 752 mmHg 83%
    20:00 +6°C° 0 mm 5 mps 752 mmHg 85%
    21:00 +5°C° 0 mm 4 mps 752 mmHg 87%
    22:00 +5°C° 0 mm 5 mps 752 mmHg 87%
    23:00 +6°C° 0 mm 5 mps 751 mmHg 86%
    Show more